Overview Statistics Trail Chart Weather Telemetry Raw packets
 

This is the latest recevied weather packets stored in our database for station/object KF0WJA. If no packets are shown the sender has not sent any weather packets the latest 10 day(s).

<< 57 58 59 60 61 62 63 >>
Time Temp. Humidity Pressure Rain* Wind** Luminosity Snow
1788274874 32.78° C 43% 1019.3 hPa 0 mm - 342 W/m² -
1788274573 32.22° C 43% 1019.4 hPa 0 mm - 325 W/m² -
1788274272 32.22° C 44% 1019.6 hPa 0 mm - 315 W/m² -
1788273968 31.67° C 45% 1019.4 hPa 0 mm - 311 W/m² -
1788273663 31.67° C 46% 1019.5 hPa 0 mm - 309 W/m² -
1788273358 31.11° C 46% 1019.6 hPa 0 mm - 276 W/m² -
1788273054 31.11° C 46% 1019.5 hPa 0 mm - 268 W/m² -
1788272750 30.56° C 47% 1019.6 hPa 0 mm - 259 W/m² -
1788272449 30.56° C 47% 1019.7 hPa 0 mm - 256 W/m² -
1788272144 30° C 48% 1019.6 hPa 0 mm - 212 W/m² -
1788271839 30° C 48% 1019.7 hPa 0 mm - 195 W/m² -
1788271554 29.44° C 49% 1019.9 hPa 0 mm - 191 W/m² -
1788271232 29.44° C 50% 1019.7 hPa 0 mm - 188 W/m² -
1788270931 28.89° C 51% 1019.6 hPa 0 mm - 160 W/m² -
1788270627 28.89° C 51% 1019.5 hPa 0 mm - 154 W/m² -
1788270323 28.33° C 52% 1019.7 hPa 0 mm - 129 W/m² -
1788270023 27.78° C 53% 1019.7 hPa 0 mm - 120 W/m² -
1788269722 27.78° C 55% 1019.5 hPa 0 mm - 60 W/m² -
1788269420 27.22° C 56% 1019.8 hPa 0 mm - 57 W/m² -
1788269115 26.67° C 57% 1019.7 hPa 0 mm - 52 W/m² -
1788268815 26.67° C 56% 1019.6 hPa 0 mm - 51 W/m² -
1788268509 26.67° C 57% 1019.8 hPa 0 mm - 50 W/m² -
1788268205 26.67° C 56% 1019.7 hPa 0 mm - 47 W/m² -
1788267899 26.11° C 57% 1019.7 hPa 0 mm - 45 W/m² -
1788267596 25.56° C 58% 1019.7 hPa 0 mm - 44 W/m² -

* Rain latest hour (hover to see other rain measurements)
** Current wind speed in m/s (hover to see current wind gust speed)